Location: Kalberh�ni
(46.4610°N, 7.2453°E)
Time: 05:43:02
(UTC+00:00)

SL-16 R/B - Visible Passes

Search period start: 18 October 2021 00:00
Search period end: 28 October 2021 00:00
Orbit: 842 x 846 km, 71.0° (Epoch: 16 October)

Date Brightness Start Highest point End Pass type
(mag) Time Alt. Az. Time Alt. Az. Time Alt. Az.
18 Oct 4.5 02:42:02 10° N 02:46:15 21° NE 02:50:28 10° E visible
18 Oct 2.1 04:25:23 10° NNW 04:31:05 83° WSW 04:36:46 10° SSE visible
18 Oct 3.4 17:37:44 10° SE 17:41:43 20° E 17:45:00 13° ENE visible
18 Oct 2.4 19:19:36 10° SW 19:25:15 68° WNW 19:27:00 44° N visible
18 Oct 4.8 21:07:07 10° WNW 21:08:59 14° WNW 21:08:59 14° WNW visible
19 Oct 4.5 02:27:43 10° N 02:31:54 20° NE 02:36:02 10° E visible
19 Oct 2.1 04:11:03 10° NNW 04:16:46 86° WSW 04:22:26 10° SSE visible
19 Oct 3.4 17:23:32 10° SE 17:27:26 19° E 17:31:20 10° NE visible
19 Oct 2.4 19:05:15 10° SW 19:10:55 71° WNW 19:14:39 22° NNE visible
19 Oct 4.7 20:52:40 10° WNW 20:56:06 16° NW 20:56:37 16° NNW visible
20 Oct 4.5 02:13:26 10° N 02:17:32 20° NE 02:21:36 10° E visible
20 Oct 2.1 03:56:43 10° NNW 04:02:27 89° WSW 04:08:07 10° SSE visible
20 Oct 3.5 17:09:21 10° SE 17:13:08 19° E 17:16:54 10° ENE visible
20 Oct 2.3 18:50:55 10° SSW 18:56:35 73° WNW 19:01:52 12° NNE visible
20 Oct 4.7 20:38:12 10° WNW 20:41:44 17° NW 20:43:48 14° NNW visible
21 Oct 4.5 02:00:35 15° N 02:03:10 19° NE 02:07:10 10° E visible
21 Oct 2.1 03:42:35 11° NNW 03:48:07 88° ENE 03:53:47 10° SSE visible
21 Oct 3.7 05:28:23 10° WNW 05:31:23 15° W 05:34:22 10° SW visible
21 Oct 3.6 16:55:10 10° SE 16:58:49 18° E 17:02:30 10° ENE visible
21 Oct 2.3 18:36:35 10° SSW 18:42:14 76° WNW 18:47:57 10° NNE visible
21 Oct 4.7 20:23:44 10° W 20:27:22 17° NW 20:30:35 11° N visible
22 Oct 4.5 01:48:37 19° NE 01:48:48 19° NE 01:52:43 10° E visible
22 Oct 2.1 03:30:38 28° NNW 03:33:47 86° ENE 03:39:28 10° SSE visible
22 Oct 3.7 05:13:55 10° WNW 05:17:05 15° W 05:20:15 10° SW visible
22 Oct 2.3 18:22:15 10° SSW 18:27:55 78° WNW 18:33:38 10° NNE visible
22 Oct 4.7 20:09:17 10° W 20:13:00 17° NW 20:16:43 10° N visible
23 Oct 4.8 01:36:48 15° ENE 01:36:48 15° ENE 01:38:17 10° E visible
23 Oct 2.1 03:18:49 70° N 03:19:27 83° ENE 03:25:08 10° SSE visible
23 Oct 3.6 05:00:50 14° WNW 05:02:47 16° W 05:06:05 10° SW visible
23 Oct 2.3 18:07:54 10° SSW 18:13:36 81° WNW 18:19:18 10° NNE visible
23 Oct 4.6 19:54:51 10° W 19:58:38 18° NW 20:02:26 10° N visible
24 Oct 2.9 03:07:00 44° SE 03:07:00 44° SE 03:10:48 10° SSE visible
24 Oct 3.6 04:49:00 16° WSW 04:49:00 16° WSW 04:51:56 10° SW visible
24 Oct 2.2 17:53:35 10° SSW 17:59:16 84° WNW 18:04:59 10° NNE visible
24 Oct 4.6 19:40:24 10° W 19:44:16 18° NW 19:48:10 10° N visible
25 Oct 4.2 02:55:04 18° SSE 02:55:04 18° SSE 02:56:28 10° SSE visible
25 Oct 4.1 04:37:04 12° SW 04:37:04 12° SW 04:37:46 10° SW visible
25 Oct 2.2 17:39:16 10° SSW 17:44:56 86° WNW 17:50:40 10° NNE visible
25 Oct 4.6 19:25:58 10° W 19:29:55 19° NW 19:33:52 10° N visible
26 Oct 2.2 17:24:56 10° SSW 17:30:36 89° WNW 17:36:20 10° NNE visible
26 Oct 4.6 19:11:32 10° W 19:15:33 19° NW 19:19:35 10° N visible
27 Oct 2.2 17:10:36 10° SSW 17:16:17 88° ESE 17:22:00 10° NNE visible
27 Oct 4.5 18:57:06 10° W 19:01:11 20° NW 19:05:18 10° N visible
